FW8060 Weather Reports


Display with metric or nautical units.
time (UTC)temp
F
wind
direction
speed
MPH
gust
MPH
rain 1hr
in
rain 24hr
in
rain mn
in
humidity
%
barometer
mb
20260503022351 59 142 3.0 5.0 0.00 0.13 0.02 92 1010.6
20260503021545 60 153 3.0 5.0 0.00 0.13 0.02 92 1010.8
20260503021350 59 130 3.0 7.0 0.00 0.13 0.02 92 1010.7
20260503014329 60 155 3.0 6.0 0.00 0.13 0.02 92 1011.0
20260503013327 60 137 2.0 7.0 0.00 0.13 0.02 92 1011.0
20260503012327 60 128 3.0 6.0 0.01 0.21 0.02 92 1011.0
20260503011334 60 105 2.0 5.0 0.02 0.21 0.02 91 1011.0
20260503011312 60 132 2.0 5.0 0.02 0.21 0.02 91 1011.4
20260503005447 60 209 3.0 8.0 0.00 0.20 0.00 91 1012.2
20260503005330 60 150 3.0 6.0 0.02 0.21 0.02 90 1011.6
20260503004844 60 129 3.0 8.0 0.02 0.21 0.02 89 1011.8
20260503004431 60 134 3.0 7.0 0.02 0.21 0.02 90 1011.7
20260503002407 61 154 2.0 7.0 0.01 0.20 0.01 89 1011.9
20260503001351 60 148 3.0 9.0 0.00 0.20 0.00 90 1012.1
20260503000349 60 184 2.0 6.0 0.00 0.20 0.00 91 1012.1
20260502234321 60 134 4.0 9.0 0.00 0.20 0.00 91 1012.2
20260502233322 60 126 4.0 7.0 0.00 0.20 0.00 91 1012.1
20260502233244 60 130 4.0 7.0 0.00 0.20 0.00 91 1012.0
20260502231320 60 138 3.0 6.0 0.00 0.20 0.00 92 1012.0
20260502231238 60 143 3.0 6.0 0.00 0.20 0.00 92 1012.0
20260502225321 60 130 2.0 5.0 0.00 0.20 0.00 92 1012.2
20260502224317 60 138 2.0 5.0 0.00 0.20 0.00 92 1012.1
20260502223516 60 152 2.0 5.0 0.00 0.20 0.00 91 1012.2
20260502223329 60 108 3.0 7.0 0.00 0.20 0.00 92 1012.1
20260502221317 60 128 2.0 3.0 0.00 0.20 0.00 91 1012.4
20260502221306 60 129 2.0 5.0 0.00 0.20 0.00 91 1012.4
20260502215311 60 134 2.0 5.0 0.00 0.20 0.20 90 1012.5
20260502214312 60 134 2.0 6.0 0.00 0.20 0.20 90 1012.6
20260502213320 60 148 3.0 7.0 0.00 0.20 0.20 89 1012.6
20260502212313 60 119 3.0 7.0 0.00 0.20 0.20 88 1012.4
20260502211317 60 116 3.0 7.0 0.00 0.20 0.20 88 1012.4
20260502210314 60 119 3.0 7.0 0.00 0.20 0.20 87 1012.5
20260502205309 60 110 4.0 8.0 0.00 0.20 0.20 87 1012.6
20260502205304 60 106 4.0 8.0 0.00 0.20 0.20 87 1012.6
20260502203320 60 107 3.0 8.0 0.00 0.20 0.20 86 1012.7
20260502202317 60 113 2.0 7.0 0.00 0.20 0.20 86 1012.6
20260502201312 60 134 1.0 3.0 0.00 0.20 0.20 85 1012.5
20260502200307 61 120 1.0 4.0 0.00 0.20 0.20 85 1012.6
20260502195307 61 120 1.0 3.0 0.00 0.20 0.20 85 1012.7
20260502194310 62 120 2.0 4.0 0.00 0.20 0.20 83 1012.7
20260502193321 62 132 1.0 4.0 0.00 0.20 0.20 83 1012.8
20260502192317 62 117 1.0 4.0 0.00 0.20 0.20 85 1012.9
20260502191317 62 117 1.0 4.0 0.00 0.20 0.20 86 1012.8
20260502190319 62 117 2.0 7.0 0.01 0.20 0.20 87 1012.9
20260502185306 62 126 3.0 9.0 0.02 0.20 0.20 88 1012.9
20260502184305 63 126 2.0 9.0 0.04 0.20 0.20 88 1013.0
20260502183332 64 82 2.0 9.0 0.06 0.20 0.20 85 1013.2
20260502183305 63 113 4.0 9.0 0.06 0.20 0.20 87 1013.2
20260502181309 65 136 2.0 6.0 0.06 0.20 0.20 81 1013.1
20260502180305 65 261 4.0 8.0 0.06 0.19 0.19 79 1013.5
20260502170317 74 162 4.0 7.0 0.00 0.13 0.13 56 1013.0
20260502164317 75 175 3.0 8.0 0.00 0.13 0.13 53 1013.2
20260502163327 75 148 4.0 9.0 0.00 0.13 0.13 53 1013.2
20260502162308 76 116 4.0 9.0 0.00 0.13 0.13 53 1013.5
20260502161319 76 153 4.0 12.0 0.00 0.13 0.13 51 1013.6
20260502160614 76 141 3.0 7.0 0.00 0.13 0.13 53 1013.9
20260502160327 76 177 4.0 9.0 0.00 0.13 0.13 53 1013.6
20260502151305 77 143 4.0 11.0 0.00 0.13 0.13 54 1014.5
20260502150311 77 115 2.0 5.0 0.00 0.13 0.13 54 1014.6
20260502123301 73 179 1.0 7.0 0.00 0.13 0.13 60 1016.8
20260502122307 74 316 3.0 8.0 0.00 0.13 0.13 58 1017.0
20260502121300 74 184 3.0 8.0 0.00 0.13 0.13 60 1017.1
20260502120304 73 112 3.0 7.0 0.00 0.13 0.13 61 1017.1
20260502115310 73 213 4.0 10.0 0.00 0.13 0.13 60 1017.3
20260502114300 72 40 2.0 7.0 0.00 0.13 0.13 65 1017.3
20260502113257 71 192 4.0 8.0 0.00 0.13 0.13 63 1017.6
20260502112253 71 272 3.0 7.0 0.00 0.13 0.13 65 1017.6
20260502111251 70 143 2.0 6.0 0.00 0.13 0.13 67 1017.7
20260502110250 70 238 2.0 6.0 0.00 0.13 0.13 67 1017.8
20260502105253 69 263 3.0 7.0 0.00 0.13 0.13 67 1018.0
20260502104258 69 230 3.0 7.0 0.00 0.13 0.13 67 1018.0
20260502103256 68 275 2.0 6.0 0.00 0.13 0.13 70 1018.1
20260502102253 67 227 4.0 8.0 0.00 0.13 0.13 71 1018.2
20260502101249 67 250 3.0 8.0 0.00 0.13 0.13 73 1018.4
20260502100249 66 152 2.0 7.0 0.00 0.13 0.13 77 1018.5
20260502091250 64 201 3.0 7.0 0.00 0.13 0.13 84 1018.9
20260502090246 63 194 3.0 9.0 0.00 0.13 0.13 86 1018.9
20260502071231 60 244 4.0 9.0 0.00 0.13 0.13 91 1019.0
20260502070739 59 187 2.0 5.0 0.00 0.13 0.13 91 1018.6
20260502070313 60 242 3.0 9.0 0.00 0.13 0.13 91 1019.1
20260502065252 60 225 2.0 5.0 0.00 0.13 0.13 92 1018.9
20260502064122 58 131 1.0 3.0 0.00 0.13 0.13 92 1018.5
20260502063356 59 153 1.0 5.0 0.00 0.13 0.13 92 1018.4
20260502062851 57 131 2.0 5.0 0.00 0.13 0.13 92 1018.4
20260502062342 58 153 2.0 5.0 0.00 0.13 0.13 92 1018.5
20260502055233 57 131 2.0 4.0 0.00 0.13 0.13 93 1018.6
20260502054233 57 131 1.0 4.0 0.00 0.13 0.13 93 1018.4
20260502053235 57 131 2.0 5.0 0.00 0.13 0.13 92 1018.5
20260502052237 57 131 1.0 4.0 0.00 0.13 0.13 91 1018.4
20260502051232 57 268 1.0 3.0 0.00 0.13 0.13 91 1018.5
20260502050231 57 268 1.0 3.0 0.00 0.13 0.13 92 1018.3
20260502045231 57 268 0.0 1.0 0.00 0.13 0.13 92 1018.3
20260502044240 57 268 0.0 2.0 0.00 0.13 0.13 92 1018.3
20260502043233 57 268 0.0 0.0 0.00 0.13 0.13 93 1018.3
20260502042239 57 268 0.0 0.0 0.00 0.13 0.13 92 1018.3
20260502041234 57 268 0.0 0.0 0.00 0.13 0.13 92 1018.4
20260502040232 57 268 0.0 1.0 0.00 0.13 0.13 91 1018.4
20260502035235 57 268 0.0 2.0 0.00 0.13 0.13 91 1018.6
20260502035052 57 268 0.0 1.0 0.00 0.13 0.13 91 1018.6
20260502033231 57 268 0.0 1.0 0.03 0.13 0.13 91 1018.7
20260502033106 57 268 1.0 2.0 0.04 0.13 0.13 91 1019.0
20260502032419 57 268 1.0 3.0 0.04 0.13 0.13 91 1018.8
20260502030237 57 268 1.0 3.0 0.04 0.13 0.13 91 1019.0
20260502025234 57 268 1.0 3.0 0.04 0.13 0.13 90 1019.1
20260502024231 57 268 2.0 6.0 0.04 0.13 0.13 89 1019.2